Regional Weather Roundup
Issued by NWS State College, PA

Home | Current Version | Previous Version | Text Only | Print | Product List | Glossary On
Versions: 1 2 3 4 5 6 7 8 9 10 11 12 13 14 15 16 17 18 19 20 21 22 23 24 25 26 27 28 29 30 31 32 33 34 35 36 37 38 39 40 41 42 43 44 45 46 47 48 49 50
000
ASUS41 KCTP 231703
RWRCTP

REGIONAL WEATHER ROUNDUP
NATIONAL WEATHER SERVICE STATE COLLEGE PA
100 PM EDT TUE MAY 23 2017

Note: "fair" indicates few or no clouds below 12,000 feet with no
significant weather and/or obstructions to visibility.

* = STATION THAT DOES NOT REPORT PRECIPITATION /E.G. RAIN...SNOW...ETC/
    THUNDER OR FOG.

PAZ002>004-007>009-013>016-020>023-029>032-231800-
WESTERN PENNSYLVANIA

CITY           SKY/WX    TMP DP  RH WIND       PRES   REMARKS
ERIE           MOSUNNY   69  49  48 N10       29.88F
MEADVILLE      SUNNY     69  47  45 VRB5      29.88F
FRANKLIN*      SUNNY     68  46  45 E8G18     29.90F
NEW CASTLE     FAIR      70  47  43 VRB6      29.88F
BEAVER COUNTY  SUNNY     70  45  40 SE9       29.88F
BUTLER*        SUNNY     70  46  43 SE13      29.89F
PITTSBURGH INT CLOUDY    69  45  41 SE12      29.86F
PITTSBURGH     CLOUDY    68  44  42 SE10      29.87F
INDIANA*       NOT AVBL
LATROBE        PTSUNNY   66  45  45 SE17      29.89F
WASHINGTON CO* CLOUDY    66  48  52 E10       29.89F
$$

PAZ004>006-010>012-017>019-024>028-033>037-041-042-045-046-049>053-231800-
CENTRAL PENNSYLVANIA

CITY           SKY/WX    TMP DP  RH WIND       PRES   REMARKS
BRADFORD       SUNNY     66  45  46 E5        29.92
DUBOIS         PTSUNNY   66  41  40 SE8       29.90F
CLEARFIELD     PTSUNNY   68  46  45 VRB6      29.92F
JOHNSTOWN      CLOUDY    61  44  53 SE13G20   29.93F
ALTOONA        CLOUDY    63  47  55 VRB3      29.94F
STATE COLLEGE  SUNNY     64  48  55 CALM      29.93F
WILLIAMSPORT   CLOUDY    65  51  60 SE3       29.92F
SELINSGROVE    CLOUDY    64  50  60 CALM      29.94F
FT INDIANTOWN  CLOUDY    63  50  62 SE5       29.94F
CAPITAL CITY   CLOUDY    65  45  48 E6        29.93F
HARRISBURG     CLOUDY    65  50  58 SE3       29.93F
YORK           CLOUDY    63  50  62 E7        29.93F
$$

PAZ038>040-043-044-047-048-054-055-060>062-067>071-231800-
EASTERN PENNSYLVANIA

CITY           SKY/WX    TMP DP  RH WIND       PRES   REMARKS
SCRANTON       CLOUDY    63  47  55 VRB3      29.93F
MOUNT POCONO   CLOUDY    60  43  53 NE8       29.94F
ALLENTOWN      CLOUDY    66  48  52 NE6       29.94F
QUAKERTOWN*    CLOUDY    64  48  55 NE3       29.95F
READING        CLOUDY    67  50  54 VRB6      29.93F
LANCASTER      CLOUDY    65  52  62 SE9       29.94F
COATESVILLE    CLOUDY    63  50  63 E6G13     29.96F
POTTSTOWN      CLOUDY    64  50  60 CALM      29.96S
BLUE BELL      CLOUDY    63  54  72 E5        29.95F
DOYLESTOWN     CLOUDY    64  54  69 CALM      29.93F
WILLOW GROVE   NOT AVBL
NORTH PHILA    CLOUDY    67  53  61 SE7       29.95F
PHILADELPHIA   CLOUDY    68  54  60 E8        29.94S
$$



USA.gov is the U.S. government's official web portal to all federal, state and local government web resources and services.